Weather in Pohvisnevo

Russia / Kaluga Oblast     54°44′17″N   37°05′26″E
temp.,
°C
wind,
m/s
gust,
m/s
humid.,
%
clouds,
%
prec.,
mm/h
press.,
hPa
HPBL,
m
25 may, wed
wed2500:00+1n228534 0.0 101440
03:000nnw22925 0.0 101527
06:00+2n238426 0.0 1016150
09:00+7n235716 0.0 10161154
12:00+11nw2345100 0.0 10151646
15:00+12wnw4446100 0.0 10151730
18:00+10w346194 0.0 10151073
21:00+8s227060 0.0 101439
26 may, thu
thu2600:00+7sw247996 0.0 101495
03:00+4sw2392100 0.0 101350
06:00+6sw25896 0.0 1011122
09:00+14wsw345798 0.0 1009537
12:00+15sw3576100 0.9 1007378
15:00+15ssw5974100 1.8 1005859
18:00+11sse41096100 4.3 1001661
21:00+10nne2299100 7.5 99974
27 may, fri
fri2700:00+10wnw51198100 3.4 999602
03:00+9w51098100 6.4 1000621
06:00+9w3895100 0.0 1001365
09:00+10w6109197 0.6 1001876
12:00+10w61189100 0.6 1003960
15:00+13w610736 1.1 10031332
18:00+15wsw510646 0.4 10021507
21:00+9sw378391 0.4 1003127
28 may, sat
sat2800:00+9ssw41085100 0.1 1002291
03:00+9wsw3798100 6.7 1000309
06:00+8sw41195100 2.6 1000542
09:00+11w711795 2.9 10011188
12:00+14wsw8125267 0.0 10022188
15:00+13wsw812636 0.7 10041946
18:00+12wsw713640 0.6 10051610
21:00+9wsw613714 0.6 1007776
29 may, sun
sun2900:00+7sw513810 0.0 1009488
03:00+6sw513870 0.0 1010434
06:00+7sw4118752 0.0 1011388
09:00+12sw58655 0.0 10121189
12:00+15wsw68505 0.3 10131934
15:00+17wsw68465 0.3 10132242
18:00+15wsw586110 0.0 1014956
21:00+10sw36865 0.0 101693